Regional Weather Roundup
Issued by NWS Kansas City/Pleasant Hill, MO

Home | Current Version | Previous Version | Graphics & Text | Print | Product List | Glossary Off
Versions: 1 2 3 4 5 6 7 8 9 10 11 12 13 14 15 16 17 18 19 20 21 22 23 24 25 26 27 28 29 30 31 32 33 34 35 36 37 38 39 40 41 42 43 44 45 46 47 48 49 50

000
ASUS43 KEAX 271311
RWREAX

WEATHER ROUNDUP FOR EASTERN KANSAS AND NORTHWEST MISSOURI
NATIONAL WEATHER SERVICE KANSAS CITY/PLEASANT HILL MO
700 AM CST TUE JAN 27 2015

KSZ040-057-103>105-MOZ028-029-037-043-271400-
...KANSAS CITY METROPOLITAN AREA...

CITY           SKY/WX    TMP DP  RH WIND       PRES   REMARKS
K.C. INTL      CLEAR     36  32  85 NW5       30.12R WCI  32
K.C. DOWNTOWN  CLEAR     32  29  88 CALM      30.13R
LEES SUMMIT    CLEAR     35  31  85 N3        30.12R
OLATHE - IXD   CLEAR     32  29  88 NW5       30.13R WCI  27
OLATHE - OJC   CLEAR     33  29  85 CALM      30.11R
LAWRENCE       CLEAR     24  22  91 NW9       30.14R WCI  14

$$

MOZ001>008-011>017-020>025-030>033-038>040-044>046-053-054-271400-
...NORTHERN AND CENTRAL MISSOURI...

CITY           SKY/WX    TMP DP  RH WIND       PRES   REMARKS
ST. JOSEPH     FOG       23  22  96 CALM      30.14R VSB 1/2
MOSBY          SUNNY     28  27  93 CALM      30.13R
WARRENSBURG    CLEAR     32  30  93 N3        30.12R
WHITEMAN AFB   CLEAR     33  30  88 NW3       30.11R
CLINTON        CLEAR     34  32  93 MISG      30.13R
SEDALIA        CLEAR     34  30  85 NW6       30.12R WCI  29
WARSAW         NOT AVBL
MARSHALL       CLEAR     36  32  87 NW5       30.12R WCI  32
CHILLICOTHE      N/A     29  26  89 CALM      30.14R
MOBERLY        CLEAR     32  28  86 NW3       30.09R
KIRKSVILLE     CLEAR     31  28  89 N5        30.09R WCI  26

$$

MOZ041-047>049-056>058-063>065-088>090-097-271400-
...EASTERN AND SOUTHERN MISSOURI...

CITY           SKY/WX    TMP DP  RH WIND       PRES   REMARKS
ST. LOUIS INTL MOCLDY    33  30  88 W5        30.07R WCI  29
SPIRIT OF STL  CLEAR     34  31  88 CALM      30.07R
COLUMBIA       CLEAR     32  30  92 NW6       30.10R WCI  26
JEFFERSON CITY CLEAR     29  27  92 CALM      30.11R
MEXICO         MOCLDY    34  34 100 NW6       30.09R WCI  29
HANNIBAL       CLEAR     32  30  93 NW5       30.09R WCI  27
ROLLA          CLEAR     34  30  85 NW7       30.06R WCI  28
LEBANON        CLEAR     37  32  81 N3        30.10R
OSAGE BEACH    CLEAR     37  30  75 CALM      30.10R
SPRINGFIELD    CLEAR     32  28  85 CALM      30.09R
BRANSON        CLEAR     41  32  70 NW5       30.11R
NEVADA         CLEAR     34  30  86 CALM      30.14
JOPLIN         CLEAR     36  31  82 CALM      30.13R
WEST PLAINS    CLEAR     38  32  79 N6        30.07R WCI  33

$$

IAZ060-094-KSZ022-034>040-054-083-096-NEZ052-066-093-271400-
...KANSAS...SOUTHEAST NEBRASKA AND IOWA...

CITY           SKY/WX    TMP DP  RH WIND       PRES   REMARKS
TOPEKA         CLEAR     28  24  85 CALM      30.14R
MANHATTAN      CLEAR     26  23  88 CALM      30.12R
EMPORIA        CLEAR     33  28  81 N3        30.11R
CHANUTE        CLEAR     31  28  89 CALM      30.14R
WICHITA        CLEAR     34  28  79 CALM      30.11R
OMAHA          CLEAR     26  24  92 CALM      30.11R
LINCOLN        CLEAR     21  18  88 CALM      30.11R
FALLS CITY     PTCLDY    28  25  88 CALM      30.12R
LAMONI         CLEAR     28  25  88 N5        30.10R WCI  23
DES MOINES     CLEAR     31  28  89 N5        30.10R WCI  26

$$



USA.gov is the U.S. government's official web portal to all federal, state and local government web resources and services.